Stations météo

réclame
Mon MeteoGroup
Bale-Mulhouse, France (7299): Température de l'air & dewpoint: 10.07.2018 12:00:00 - 16.07.2018 12:00:00 (CEST)Bale-Mulhouse, France (7299): Température de l'air 5cm: 10.07.2018 12:00:00 - 16.07.2018 12:00:00 (CEST)Bale-Mulhouse, France (7299): Température de l'air -20cm & Température de l'air -100cm: 10.07.2018 12:00:00 - 16.07.2018 12:00:00 (CEST)Bale-Mulhouse, France (7299): Vitesse du vent & gusts: 10.07.2018 12:00:00 - 16.07.2018 12:00:00 (CEST)Bale-Mulhouse, France (7299): Direction du vent: 10.07.2018 12:00:00 - 16.07.2018 12:00:00 (CEST)Bale-Mulhouse, France (7299): reduced air pressure: 10.07.2018 12:00:00 - 16.07.2018 12:00:00 (CEST)Bale-Mulhouse, France (7299): visibility: 10.07.2018 12:00:00 - 16.07.2018 12:00:00 (CEST)Bale-Mulhouse, France (7299): Ensoleillement: 10.07.2018 12:00:00 - 16.07.2018 12:00:00 (CEST)Bale-Mulhouse, France (7299): Quantités de précipitations: 10.07.2018 12:00:00 - 16.07.2018 12:00:00 (CEST)
Date & Time tt [°C] td [°C] tt 5cm [°C] tt -20cm [°C] tt -100cm [°C] ff [km/h] ff [knt] fx [km/h] fx [knt] dd ppp [hPa] vv [km] sd [min] rr [mm]
16.07.2018 12:00:00 - - - - - - - - - - - - - -
16.07.2018 11:00:00 24,5 14,3 28,5 24,1 22,1 4 2 19 10 ESE 1012,9 50 60 0,0
16.07.2018 10:00:00 22,6 14,2 22,2 24,1 22,2 4 2 12 7 E 1013,4 40 60 0,0
16.07.2018 09:00:00 20,5 15,1 22,0 24,1 22,1 5 3 13 7 SE 1014,3 40 60 0,0
16.07.2018 08:00:00 18,2 15,3 17,9 24,4 22,1 3 2 9 5 S 1014,7 30 60 0,0
16.07.2018 07:00:00 15,7 14,2 13,0 24,6 22,1 5 3 10 5 S 1015,1 30 32 0,0
16.07.2018 06:00:00 14,1 13,5 11,5 24,9 22,1 6 3 9 5 S 1015,2 20 0 0,0
16.07.2018 05:00:00 14,9 13,9 12,6 25,1 22,1 6 3 9 5 S 1014,9 20 0 0,0
16.07.2018 04:00:00 14,8 13,8 12,8 25,4 22,1 7 4 10 6 SE 1015,1 21 0 0,0
16.07.2018 03:00:00 15,1 14,3 13,3 25,7 22,1 4 2 9 5 SSW 1015,2 14 0 0,0
16.07.2018 02:00:00 16,1 15,3 15,0 25,9 22,1 4 2 9 5 SSW 1015,4 14 0 0,0
16.07.2018 01:00:00 17,1 16,0 16,5 26,1 22,1 5 3 9 5 WNW 1015,7 20 0 0,0
16.07.2018 00:00:00 18,0 16,0 16,9 26,3 22,1 3 2 23 12 SE 1015,9 50 0 0,0
15.07.2018 23:00:00 17,7 16,4 16,9 26,6 22,0 2 1 11 6 W 1015,9 30 0 0,2
15.07.2018 22:00:00 18,0 16,0 17,4 26,8 22,0 3 2 14 8 WSW 1016,1 30 0 0,0
15.07.2018 21:00:00 18,9 15,6 17,0 27,0 22,0 7 4 21 11 S 1015,3 20 0 0,0
15.07.2018 20:00:00 19,1 15,6 17,1 27,1 22,0 9 5 29 16 NNW 1015,2 20 0 0,4
15.07.2018 19:00:00 21,6 15,0 18,1 27,1 22,0 21 11 38 21 WSW 1014,8 6 0 0,2
15.07.2018 18:00:00 23,6 13,5 24,3 27,0 22,0 6 3 19 11 NNE 1013,2 25 13 0,0
15.07.2018 17:00:00 25,0 10,8 25,2 26,8 22,0 5 3 26 14 E 1012,8 25 13 0,0
15.07.2018 16:00:00 26,3 10,8 26,7 26,4 22,0 12 6 47 25 S 1012,5 25 12 0,0
15.07.2018 15:00:00 30,8 11,2 33,4 26,0 22,0 8 4 20 11 NW 1012,3 25 53 0,0
15.07.2018 14:00:00 29,7 11,7 34,0 25,6 21,9 6 3 18 10 NNW 1012,6 25 60 0,0
15.07.2018 13:00:00 28,7 12,6 32,6 25,2 21,9 3 2 16 9 E 1013,6 25 60 0,0
15.07.2018 12:00:00 27,9 13,8 33,0 24,9 21,9 5 3 15 8 NE 1014,3 25 60 0,0
15.07.2018 11:00:00 26,7 13,8 30,1 24,8 21,9 9 5 19 10 ESE 1014,9 25 60 0,0
15.07.2018 10:00:00 25,0 14,5 25,5 24,8 21,9 4 2 10 5 S 1015,4 25 60 0,0
15.07.2018 09:00:00 22,7 14,8 23,8 24,9 21,9 2 1 8 4 SW 1016,1 25 60 0,0
15.07.2018 08:00:00 20,2 14,8 19,0 25,1 21,9 5 3 8 5 WNW 1016,3 25 60 0,0
15.07.2018 07:00:00 16,6 14,8 13,8 25,3 21,9 5 3 8 4 NW 1016,6 25 13 0,0
15.07.2018 06:00:00 15,4 13,9 13,8 25,6 21,8 4 2 8 4 SW 1016,2 25 0 0,0
15.07.2018 05:00:00 16,5 14,1 15,0 25,7 21,8 2 1 6 3 NNE 1016,0 25 0 0,0
15.07.2018 04:00:00 19,8 14,8 17,8 25,9 21,8 4 2 9 5 E 1015,8 28 0 0,0
15.07.2018 03:00:00 20,1 15,3 18,9 26,1 21,8 3 2 8 4 ESE 1015,7 29 0 0,0
15.07.2018 02:00:00 20,6 14,0 18,5 26,3 21,8 3 1 16 9 SE 1016,2 32 0 0,0
15.07.2018 01:00:00 19,4 14,9 18,3 26,6 21,8 2 1 7 4 WSW 1016,0 14 0 0,0
15.07.2018 00:00:00 19,3 14,8 18,2 26,7 21,8 5 3 11 6 SW 1015,9 20 0 0,0
14.07.2018 23:00:00 19,5 14,3 17,7 26,9 21,8 3 2 8 5 SW 1015,6 20 0 0,0
14.07.2018 22:00:00 19,7 14,1 17,8 27,0 21,8 7 4 8 5 WSW 1015,5 30 0 0,0
14.07.2018 21:00:00 24,3 14,1 22,6 27,1 21,8 5 3 19 10 WNW 1014,9 35 5 0,0
14.07.2018 20:00:00 27,9 12,3 28,5 26,9 21,8 10 5 20 11 N 1014,4 50 14 0,0
14.07.2018 19:00:00 28,9 11,9 30,5 26,7 21,7 10 5 22 12 N 1014,4 50 10 0,0
14.07.2018 18:00:00 28,9 11,0 30,9 26,5 21,7 11 6 34 18 NNE 1014,7 50 32 0,0
14.07.2018 17:00:00 30,0 9,5 33,5 26,1 21,7 15 8 25 14 N 1014,7 50 51 0,0
14.07.2018 16:00:00 30,5 11,0 34,2 25,7 21,7 11 6 37 20 NNE 1014,9 50 53 0,0
14.07.2018 15:00:00 30,7 11,6 33,9 25,3 21,7 12 7 23 12 N 1015,5 50 35 0,0
14.07.2018 14:00:00 30,6 10,0 33,4 24,8 21,7 5 3 21 11 SSW 1015,9 50 60 0,0
14.07.2018 13:00:00 28,7 11,7 32,6 24,4 21,7 6 3 20 11 NNW 1016,7 50 60 0,0
14.07.2018 12:00:00 27,6 12,8 33,2 24,2 21,7 4 2 11 6 WNW 1017,2 50 60 0,0
14.07.2018 11:00:00 25,5 14,6 28,8 24,1 21,7 4 2 11 6 WNW 1017,8 40 60 0,0
14.07.2018 10:00:00 23,4 13,8 24,3 24,1 21,7 4 2 9 5 WNW 1018,3 30 60 0,0
14.07.2018 09:00:00 21,9 14,3 23,5 24,1 21,7 0 0 9 5 N 1018,8 30 60 0,0
14.07.2018 08:00:00 20,0 14,6 19,3 24,3 21,6 0 0 4 2 N 1018,9 30 60 0,0
14.07.2018 07:00:00 15,8 14,2 12,1 24,6 21,7 0 0 4 2 N 1019,2 30 28 0,0
14.07.2018 06:00:00 13,3 12,2 12,0 24,9 21,6 3 2 4 2 W 1019,3 30 0 0,0
14.07.2018 05:00:00 14,8 12,7 12,6 25,1 21,6 0 0 6 4 N 1019,1 18 0 0,0
14.07.2018 04:00:00 15,4 12,9 13,7 25,3 21,6 3 1 6 3 WSW 1019,1 24 0 0,0
14.07.2018 03:00:00 16,8 14,3 15,3 25,5 21,6 0 0 5 3 N 1018,8 30 0 0,0
14.07.2018 02:00:00 17,2 14,5 16,1 25,8 21,6 0 0 4 2 N 1018,5 35 0 0,0
14.07.2018 01:00:00 17,5 14,6 16,0 26,0 21,6 0 0 6 3 N 1018,3 35 0 0,0
14.07.2018 00:00:00 18,9 14,6 17,6 26,2 21,6 4 2 8 5 W 1018,1 30 0 0,0
13.07.2018 23:00:00 20,6 13,3 18,0 26,3 21,6 5 3 13 7 NW 1017,8 50 0 0,0
13.07.2018 22:00:00 21,9 13,8 19,3 26,4 21,6 5 3 12 6 NW 1017,3 50 0 0,0
13.07.2018 21:00:00 24,4 16,4 24,2 26,3 21,6 4 2 6 3 NW 1016,3 50 51 0,0
13.07.2018 20:00:00 27,7 13,6 28,6 26,2 21,6 5 3 15 8 W 1015,8 50 56 0,0
13.07.2018 19:00:00 28,9 12,3 32,8 25,9 21,6 9 5 18 10 WNW 1015,8 35 60 0,0
13.07.2018 18:00:00 29,3 11,4 34,6 25,5 21,6 8 4 19 10 W 1016,0 35 60 0,0
13.07.2018 17:00:00 29,6 12,1 34,5 25,1 21,6 8 5 21 11 NE 1016,2 35 60 0,0
13.07.2018 16:00:00 29,6 11,2 33,5 24,5 21,6 6 3 19 11 NW 1016,6 35 60 0,0
13.07.2018 15:00:00 29,0 10,6 31,9 24,1 21,6 9 5 21 11 NE 1016,8 35 60 0,0
13.07.2018 14:00:00 28,1 10,3 30,8 23,6 21,6 8 5 26 14 N 1017,4 35 60 0,0
13.07.2018 13:00:00 26,5 12,2 30,9 23,2 21,6 7 4 16 8 NNE 1018,0 35 60 0,0
13.07.2018 12:00:00 25,5 13,4 31,3 22,9 21,6 4 2 17 9 NE 1018,4 35 60 0,0
13.07.2018 11:00:00 24,0 12,9 27,0 22,7 21,6 6 3 13 7 E 1018,7 30 60 0,0
13.07.2018 10:00:00 21,9 13,5 21,7 22,7 21,6 3 2 10 6 NNE 1019,1 30 60 0,0
13.07.2018 09:00:00 20,1 13,1 21,4 22,7 21,6 3 1 8 4 NE 1019,4 25 60 0,0
13.07.2018 08:00:00 17,0 13,1 16,6 23,0 21,6 2 1 6 3 S 1019,6 25 60 0,0
13.07.2018 07:00:00 13,0 12,1 9,2 23,2 21,6 0 0 4 2 N 1020,1 25 32 0,0
13.07.2018 06:00:00 10,7 9,9 9,0 23,5 21,6 0 0 5 3 N 1020,2 30 0 0,0
13.07.2018 05:00:00 11,0 10,1 9,2 23,7 21,6 2 1 5 3 SW 1020,0 30 0 0,0
13.07.2018 04:00:00 11,3 10,4 9,6 24,0 21,6 5 3 6 3 WSW 1019,6 17 0 0,0
13.07.2018 03:00:00 11,8 10,5 10,1 24,2 21,6 2 1 4 2 W 1019,8 25 0 0,0
13.07.2018 02:00:00 12,7 11,1 11,0 24,5 21,6 3 2 5 3 SW 1019,4 25 0 0,0
13.07.2018 01:00:00 14,1 12,0 11,9 24,8 21,6 0 0 8 5 N 1019,2 35 0 0,0
13.07.2018 00:00:00 14,7 12,4 12,9 24,9 21,6 6 3 10 5 WSW 1019,0 30 0 0,0
12.07.2018 23:00:00 16,5 12,6 14,3 25,1 21,6 5 3 9 5 W 1018,6 30 0 0,0
12.07.2018 22:00:00 18,6 12,6 16,5 25,2 21,6 9 5 16 9 NW 1017,8 40 0 0,0
12.07.2018 21:00:00 21,5 12,1 21,1 25,2 21,6 12 7 24 13 NNW 1017,0 30 41 0,0
12.07.2018 20:00:00 24,3 12,6 26,4 25,1 21,6 13 7 26 14 N 1016,3 30 60 0,0
12.07.2018 19:00:00 25,0 11,5 28,1 24,9 21,6 17 9 27 15 N 1015,9 35 60 0,0
12.07.2018 18:00:00 25,8 12,6 29,5 24,6 21,6 17 9 29 16 N 1015,6 35 60 0,0
12.07.2018 17:00:00 26,4 12,1 31,2 24,1 21,6 16 8 32 17 N 1015,7 35 60 0,0
12.07.2018 16:00:00 25,9 11,3 30,8 23,6 21,6 8 4 28 15 N 1015,9 40 60 0,0
12.07.2018 15:00:00 25,4 11,9 26,4 23,2 21,7 8 5 23 12 NE 1016,2 34 51 0,0
12.07.2018 14:00:00 24,7 10,6 26,3 22,7 21,6 10 5 21 11 NNE 1016,4 48 60 0,0
12.07.2018 13:00:00 23,8 10,5 26,6 22,3 21,6 12 7 22 12 N 1016,8 48 60 0,0
12.07.2018 12:00:00 23,0 10,1 27,7 22,0 21,6 5 3 16 9 NE 1016,9 40 60 0,0
12.07.2018 11:00:00 21,6 9,5 24,9 21,8 21,7 8 4 23 12 NNE 1017,1 40 60 0,0
12.07.2018 10:00:00 20,0 10,1 19,8 21,8 21,7 2 1 11 6 N 1017,4 40 60 0,0
12.07.2018 09:00:00 17,5 10,1 19,2 21,9 21,7 3 2 9 5 SSE 1017,7 35 60 0,0
12.07.2018 08:00:00 15,0 11,0 15,4 22,1 21,7 3 2 6 4 S 1017,9 7 60 0,0
12.07.2018 07:00:00 11,6 10,2 6,2 22,3 21,7 2 1 4 2 S 1018,3 20 45 0,0
12.07.2018 06:00:00 7,9 7,1 5,8 22,6 21,7 3 1 4 2 SW 1018,6 12 0 0,0
12.07.2018 05:00:00 8,2 7,4 6,3 22,9 21,7 3 1 5 3 SW 1018,5 12 0 0,0
12.07.2018 04:00:00 8,6 7,4 6,8 23,1 21,7 0 0 5 3 N 1018,5 12 0 0,0
12.07.2018 03:00:00 9,9 9,1 7,5 23,4 21,7 0 0 5 3 N 1018,1 14 0 0,0
12.07.2018 02:00:00 11,1 9,2 8,3 23,7 21,7 2 1 7 4 SSE 1018,2 12 0 0,0
12.07.2018 01:00:00 10,9 9,2 8,9 23,9 21,7 4 2 10 6 WSW 1018,2 16 0 0,0
12.07.2018 00:00:00 11,9 10,0 9,9 24,2 21,7 3 2 4 2 WSW 1018,2 20 0 0,0
11.07.2018 23:00:00 12,7 10,2 10,8 24,3 21,7 4 2 8 4 W 1018,1 22 0 0,0
11.07.2018 22:00:00 16,1 10,6 13,9 24,4 21,7 6 3 16 9 NNW 1017,4 30 0 0,0
11.07.2018 21:00:00 19,9 9,2 19,6 24,5 21,7 8 4 18 10 NNE 1016,6 30 50 0,0
11.07.2018 20:00:00 21,4 9,3 22,5 24,5 21,7 8 5 20 11 NNE 1016,2 30 50 0,0
11.07.2018 19:00:00 21,7 8,9 22,7 24,4 21,7 13 7 23 13 NNE 1015,9 20 23 0,0
11.07.2018 18:00:00 21,9 8,7 23,4 24,2 21,7 8 4 22 12 N 1015,7 35 26 0,0
11.07.2018 17:00:00 21,6 8,5 23,4 24,0 21,7 9 5 29 16 N 1015,7 35 28 0,0
11.07.2018 16:00:00 22,4 8,5 24,9 23,6 21,7 6 4 26 14 N 1015,7 25 35 0,0
11.07.2018 15:00:00 22,8 9,6 24,2 23,3 21,7 8 4 22 12 N 1015,8 25 35 0,0
11.07.2018 14:00:00 20,8 8,8 23,4 23,1 21,7 9 5 24 13 NNW 1016,3 25 21 0,0
11.07.2018 13:00:00 20,4 9,3 22,6 22,8 21,7 9 5 23 12 NNE 1016,4 25 11 0,0
11.07.2018 12:00:00 20,2 8,5 22,0 22,6 21,7 5 3 17 9 NNE 1016,5 30 41 0,0
11.07.2018 11:00:00 19,5 9,1 22,5 22,5 21,7 6 3 16 9 WSW 1016,5 35 52 0,0
11.07.2018 10:00:00 18,8 9,6 18,7 22,4 21,7 4 2 11 6 SSE 1016,8 25 60 0,0
11.07.2018 09:00:00 17,3 9,9 18,3 22,6 21,7 3 1 8 5 N 1017,0 20 60 0,0
11.07.2018 08:00:00 15,0 10,0 10,3 22,8 21,7 3 1 7 4 SE 1017,2 20 29 0,0
11.07.2018 07:00:00 11,0 8,9 7,7 23,1 21,7 5 3 8 5 SSW 1017,5 20 0 0,0
11.07.2018 06:00:00 9,4 7,8 7,7 23,3 21,7 5 3 6 4 WSW 1017,5 20 0 0,0
11.07.2018 05:00:00 10,7 9,0 8,7 23,6 21,7 7 4 9 5 WSW 1017,2 20 0 0,0
11.07.2018 04:00:00 11,8 9,4 9,7 23,8 21,7 6 4 8 5 W 1017,1 32 0 0,0
11.07.2018 03:00:00 12,8 9,4 10,5 24,1 21,7 6 3 11 6 SW 1017,1 35 0 0,0
11.07.2018 02:00:00 14,0 9,6 10,7 24,3 21,7 7 4 12 7 WNW 1017,1 38 0 0,0
11.07.2018 01:00:00 13,9 9,1 11,2 24,6 21,7 6 3 15 8 NW 1017,4 42 0 0,0
11.07.2018 00:00:00 16,3 8,8 15,0 24,8 21,7 9 5 21 11 NW 1017,0 40 0 0,0
10.07.2018 23:00:00 18,4 9,5 17,7 25,0 21,7 11 6 22 12 NNW 1016,8 40 0 0,0
10.07.2018 22:00:00 19,2 9,4 18,4 25,1 21,7 14 7 27 14 N 1016,0 40 0 0,0
10.07.2018 21:00:00 20,5 11,9 20,1 25,1 21,6 8 4 21 11 N 1015,4 40 0 0,0
10.07.2018 20:00:00 22,2 12,2 22,1 25,1 21,7 14 8 24 13 WNW 1014,7 40 47 0,0
10.07.2018 19:00:00 23,6 12,3 24,5 25,1 21,7 9 5 25 13 NW 1014,4 40 41 0,0
10.07.2018 18:00:00 23,5 11,5 25,2 24,9 21,7 13 7 25 14 WNW 1014,7 40 42 0,0
10.07.2018 17:00:00 23,4 13,3 24,7 24,8 21,7 13 7 38 20 NNW 1015,1 40 14 0,0
10.07.2018 16:00:00 23,4 12,4 24,0 24,5 21,7 13 7 27 15 NW 1014,9 40 1 0,0
10.07.2018 15:00:00 24,9 11,8 26,9 24,2 21,6 14 7 29 16 WSW 1014,7 40 37 0,0
10.07.2018 14:00:00 23,6 12,6 25,8 23,9 21,7 8 5 19 10 N 1015,4 40 12 0,0
10.07.2018 13:00:00 24,3 12,3 26,6 23,6 21,6 8 5 27 15 W 1015,6 30 33 0,0
10.07.2018 12:00:00 22,9 12,8 24,8 23,5 21,6 8 4 22 12 NNW 1016,3 30 24 0,0

tt = Température de l'air
td = dewpoint
tt 5cm = Température de l'air 5cm
tt -20cm = Température de l'air -20cm
tt -100cm = Température de l'air -100cm
ff = Vitesse du vent
fx = gusts
dd = Direction du vent
ppp = reduced air pressure
vv = visibility
sd = Ensoleillement
rr = Quantités de précipitations

stations d'obs. à proximité